Regional Weather Roundup
Issued by NWS

Home | Current Version | Previous Version | Text Only | Print | Product List | Glossary On
Versions: 1 2 3 4 5 6 7 8 9 10 11 12 13 14 15 16 17 18 19 20 21 22 23 24 25 26 27 28 29 30 31 32 33 34 35 36 37 38 39 40 41 42 43 44 45 46 47 48 49 50
000
ASUS43 KOAX 181602
RWRNE

WEATHER ROUNDUP FOR NEBRASKA
NATIONAL WEATHER SERVICE OMAHA NE
1000 AM CST MON DEC 18 2017

NOTES: SATELLITE DATA IS BEING USED TO AUGMENT CLOUD COVER ABOVE
       12000 FEET.
       "FAIR" INDICATES FEW OR NO CLOUDS BELOW 12,000 FEET WITH NO
       SIGNIFICANT WEATHER AND/OR OBSTRUCTIONS TO VISIBILITY.


NEZ001>004-019>022-054>056-181700-
NEBRASKA PANHANDLE

CITY           SKY/WX    TMP DP  RH WIND       PRES   REMARKS
SCOTTSBLUFF    CLOUDY    47  25  42 W14       29.90R
ALLIANCE       CLOUDY    38  25  59 SW10      29.87S WCI  31
CHADRON        CLOUDY    27  21  78 NE3       29.83F
GORDON         FAIR      37  21  53 W15       29.82F WCI  28
KIMBALL        CLOUDY    38  28  67 W14       29.94S WCI  29
SIDNEY         CLOUDY    36  29  75 SW10      29.93F WCI  28
$$

NEZ057>060-069>072-079>082-181700-
SOUTHWEST NEBRASKA

CITY           SKY/WX    TMP DP  RH WIND       PRES   REMARKS
NORTH PLATTE   SUNNY     32  26  78 W7        29.95S WCI  26
IMPERIAL       SUNNY     30  23  75 W8        29.97S WCI  22
LEXINGTON      SUNNY     31  26  81 CALM      29.97R
MCCOOK         SUNNY     29  23  78 SW9       29.99S WCI  20
OGALLALA       SUNNY     29  24  82 W15       29.95S WCI  18
$$

NEZ005>010-023>029-035>040-094-181700-
NORTH CENTRAL NEBRASKA

CITY           SKY/WX    TMP DP  RH WIND       PRES   REMARKS
VALENTINE      SUNNY     36  22  56 SW10      29.83F WCI  28
AINSWORTH      SUNNY     37  26  62 W10       29.84F WCI  30
BROKEN BOW     SUNNY     37  24  59 W14       29.91S WCI  28
O`NEILL        SUNNY     35  26  70 SW8       29.87R WCI  29
ORD            SUNNY     36  24  62 CALM      29.90F
THEDFORD       SUNNY     39  24  53 W14       29.89S WCI  31
$$

NEZ041-046>049-061>064-073>077-083>087-181700-
SOUTH CENTRAL NEBRASKA

CITY           SKY/WX    TMP DP  RH WIND       PRES   REMARKS
GRAND ISLAND   SUNNY     36  25  64 W13       29.97R WCI  27
AURORA         SUNNY     35  28  74 W10       29.97R WCI  28
HASTINGS       SUNNY     33  24  69 W9        29.98R WCI  25
HEBRON         SUNNY     34  28  80 SW6       30.02R WCI  29
HOLDREGE       SUNNY     32  27  80 SW7       29.98R WCI  26
KEARNEY        SUNNY     35  24  64 W9        29.98R WCI  28
YORK           SUNNY     36  28  75 W10       29.97R WCI  28
$$

NEZ011>018-030>034-042>045-181700-
NORTHEAST NEBRASKA

CITY           SKY/WX    TMP DP  RH WIND       PRES   REMARKS
NORFOLK        SUNNY     35  27  72 W7        29.89S WCI  29
ALBION         SUNNY     37  26  65 CALM      29.91F
BLAIR          SUNNY     36  29  76 SW10      29.93R WCI  28
COLUMBUS       SUNNY     35  26  69 SW10      29.95R WCI  27
FREMONT        SUNNY     38  29  72 SW10      29.94R WCI  30
TEKAMAH        SUNNY     36  27  69 SW8       29.92R WCI  30
WAYNE          SUNNY     38  28  66 W6        29.88R WCI  34
$$

NEZ050>053-065>068-078-088>093-181700-
SOUTHEAST NEBRASKA

CITY           SKY/WX    TMP DP  RH WIND       PRES   REMARKS
LINCOLN        SUNNY     36  27  69 W7        30.00R WCI  30
OMAHA EPPLEY   MOSUNNY   38  28  67 SW5       29.95S WCI  34
BEATRICE       SUNNY     36  30  80 SW10      30.01R WCI  28
FALLS CITY     SUNNY     41  33  73 SW7       30.03R
NEBRASKA CITY  SUNNY     36  33  90 SW17      29.98F WCI  25
PLATTSMOUTH    SUNNY     36  32  83 SW12      29.97R WCI  28
$$

NEZ044-045-051>053-067-181700-
OMAHA AREA

CITY           SKY/WX    TMP DP  RH WIND       PRES   REMARKS
OMAHA EPPLEY   MOSUNNY   38  28  67 SW5       29.95S WCI  34
BLAIR          SUNNY     36  29  76 SW10      29.93R WCI  28
FREMONT        SUNNY     38  29  72 SW10      29.94R WCI  30
MILLARD        SUNNY     38  29  70 W7        29.96R WCI  33
OFFUTT AFB     SUNNY     36  35  96 SW9       29.96R WCI  29
PLATTSMOUTH    SUNNY     36  32  83 SW12      29.97R WCI  28
WAHOO          FAIR      38  29  68 SW12      29.95R WCI  31
$$




USA.gov is the U.S. government's official web portal to all federal, state and local government web resources and services.